Regional Weather Roundup
Issued by NWS Green Bay, WI

Home | Current Version | Previous Version | Text Only | Print | Product List | Glossary On
Versions: 1 2 3 4 5 6 7 8 9 10 11 12 13 14 15 16 17 18 19 20 21 22 23 24 25 26 27 28 29 30 31 32 33 34 35 36 37 38 39 40 41 42 43 44 45 46 47 48 49 50
000
ASUS43 KGRB 300900
RWRGRB

NORTH-CENTRAL AND NORTHEAST WISCONSIN REGIONAL WEATHER ROUNDUP
NATIONAL WEATHER SERVICE GREEN BAY WI
400 AM CDT SAT APR 30 2016

WIZ005-009-010>012-018-019-301000-
NORTH CENTRAL WISCONSIN

CITY           SKY/WX    TMP DP  RH WIND       PRES   REMARKS
IRONWOOD         N/A     34  30  86 CALM      30.19F
MANITOWISH WTR NOT AVBL
ARBOR VITAE    NOT AVBL
EAGLE RIVER    NOT AVBL
LAND O LAKES   NOT AVBL
RHINELANDER    CLOUDY    36  28  73 NE5       30.16F
PHILLIPS       CLOUDY    35  30  82 NE3       30.15S
ANTIGO         NOT AVBL
TOMAHAWK       NOT AVBL
MERRILL        CLOUDY    33  30  89 NE6       30.15S
$$

WIZ013-073-301000-
NORTHEAST WISCONSIN

CITY           SKY/WX    TMP DP  RH WIND       PRES   REMARKS
IRON MOUNTAIN  CLOUDY    36  28  73 NW6       30.17F
MARINETTE      CLEAR     37  28  70 NE7       30.16F
$$

WIZ017-030-035>037-045-301000-
CENTRAL WISCONSIN

CITY           SKY/WX    TMP DP  RH WIND       PRES   REMARKS
MEDFORD        NOT AVBL
WAUSAU         CLOUDY    40  28  62 SE3       30.12F
MOSINEE        NOT AVBL
MARSHFIELD     CLOUDY    39  31  72 E7        30.11F
WISC RAPIDS    CLOUDY    39  31  72 CALM      30.13F
STEVENS POINT  NOT AVBL
WAUPACA        MOCLDY    38  33  84 N3        30.15R
SHAWANO        CLOUDY    41  33  72 NE5       30.15F
CLINTONVILLE   NOT AVBL
WAUTOMA        PTCLDY    34  31  88 N3        30.11F
$$

WIZ038-039-048-051-301000-
FOX VALLEY

CITY           SKY/WX    TMP DP  RH WIND       PRES   REMARKS
NWS GREEN BAY  MOCLDY    42  37  82 NE10      30.14F
APPLETON       NOT AVBL
OSHKOSH        CLOUDY    38  31  76 NE8       30.12F
FOND DU LAC    CLOUDY    34  29  82 N6        30.11F
$$

WIZ022-050-052-301000-
EAST CENTRAL WISCONSIN

CITY           SKY/WX    TMP DP  RH WIND       PRES   REMARKS
EPHRAIM        NOT AVBL
STURGEON BAY   CLEAR     41  30  65 NE9       30.17F
MANITOWOC      NOT AVBL
SHEBOYGAN      CLOUDY    34  27  75 N5        30.11F
$$

LMZ563-521-522-541>543-301000-
LAKESHORE

STATION/POSITION TIME  TEMP    WIND        PRES    VSBY  WAVE
                       AIR SEA DIR/SP/G                  HT/PER
                 (UTC) (F)     (DEG/KT/KT) (MB)    (MI)  (FT/S)
SHEBOYGAN LKSHOR 0800   43     320/  2/  3 1021.4F
KEWAUNEE LKSHORE 0800   45      20/ 10/ 13 1020.3S
ALGOMA MARINA    0800           20/  7/  9   N/A
NORTHPORT PIER   0800   40     330/  1/  9 1022.4R
N MID LAKE BUOY  0750   40 38   20/ 10/ 12 1022.4R         1
CHAMBERS ISLAND  0800   40      10/  7/  9 1022.7R
MENOMINEE LKSHOR 0800   42      10/ 11/ 14 1021.1R
$$




USA.gov is the U.S. government's official web portal to all federal, state and local government web resources and services.